Location: St. Louis
(38.6270°N, 90.1994°W)
Time: 18:00:19
(UTC-05:00)

ISS - Pass Details

Date: 01 April 2014
Orbit: 401 x 404 km, 51.6° (Epoch: 27 July)

Event Time Altitude Azimuth Distance (km) Brightness Sun altitude
Exits shadow 06:11:51 - 303° (WNW) 2,093 -0.1 -7.3°
Reaches altitude 10° 06:13:25 10° 299° (WNW) 1,463 -1.0 -7.0°
Maximum altitude 06:16:35 48° 224° (SW) 535 -3.0 -6.4°
Drops below altitude 10° 06:19:43 10° 148° (SSE) 1,446 -0.2 -5.8°
Sets 06:21:49 0° 142° (SE) 2,299 0.9 -5.4°
